User: anonymous   Login
Location: Mascot Post Office (historical)
(40.2645°N, 99.5462°W)
Time: 13:15:36
(UTC+00:00)
Language:

Hubble Space Telescope - Orbit

View from above orbital plane
View from above orbital plane
View from above satellite
View from above satellite

Ground track
Ground track

The orbit data is extracted from the following two-line orbital elements,

1 20580U 90037B   20274.90087218  .00000615  00000-0  26425-4 0  9999
2 20580  28.4708 342.2031 0002792 142.1847  20.7941 15.09440482472001
Epoch (UTC): 30 September 2020 21:37:15
Eccentricity: 0.0002792
inclination: 28.4708°
perigee height: 536 km
apogee height: 540 km
right ascension of ascending node: 342.2031°
argument of perigee: 142.1847°
revolutions per day: 15.09440482
mean anomaly at epoch: 20.7941°
orbit number at epoch: 47200

The dashed part of the orbit path shows where the satellite is in the earth's shadow,  

DLR